Regional Weather Roundup
Issued by NWS Cleveland, OH

Home | Current Version | Previous Version | Graphics & Text | Print | Product List | Glossary On
Versions: 1 2 3 4 5 6 7 8 9 10 11 12 13 14 15 16 17 18 19 20 21 22 23 24 25 26 27 28 29 30 31 32 33 34 35 36 37 38 39 40 41 42 43 44 45 46 47 48 49 50
000
ASUS41 KCLE 231402
RWRCLE
OHIO REGIONAL WEATHER ROUNDUP
NATIONAL WEATHER SERVICE CLEVELAND, OH
1000 AM EDT SAT SEP 23 2017

NOTE: "FAIR" INDICATES FEW OR NO CLOUDS BELOW 12,000 FEET WITH NO
SIGNIFICANT WEATHER AND/OR OBSTRUCTIONS TO VISIBILITY.

OHZ001>008-015>018-024>027-034-035-043-044-231500-
   NORTHWEST OHIO

CITY           SKY/WX    TMP DP  RH WIND       PRES   REMARKS
DEFIANCE       SUNNY     73  66  78 CALM      30.14R
FINDLAY        SUNNY     76  65  68 CALM      30.14R
TOLEDO EXPRESS SUNNY     74  68  81 CALM      30.14R
TOLEDO EXEC    SUNNY     74  65  73 CALM      30.15S
LIMA           SUNNY     78  66  66 SE3       30.15R
$$

OHZ009>014-019>023-028>033-038-089-231500-
   NORTHEAST OHIO

CITY           SKY/WX    TMP DP  RH WIND       PRES   REMARKS
CLE-HOPKINS    SUNNY     78  60  53 CALM      30.17R
CLE-LAKEFRONT  SUNNY     73  63  70 NW7       30.15R
CUY CO. ARPT   NOT AVBL
LORAIN-ELYRIA  SUNNY     73  59  61 CALM      30.17R
ASHTABULA      SUNNY     72  62  71 CALM      30.18R
AKRON-CANTON   SUNNY     76  60  57 CALM      30.17S
WOOSTER        SUNNY     73  63  70 CALM      30.18R
MANSFIELD      SUNNY     77  59  53 SE5       30.18R
YOUNGSTOWN     MOSUNNY   72  61  68 CALM      30.18R
$$

OHZ042-051>053-060>062-070>072-077>081-231500-
  SOUTHWEST OHIO

CITY           SKY/WX    TMP DP  RH WIND       PRES   REMARKS
CINC-COVINGTON SUNNY     78  68  71 NE6       30.14R
CINC-LUNKEN    SUNNY     73  69  87 CALM      30.14S
HAMILTON       SUNNY     75  69  81 CALM      30.15R
DAYTON         SUNNY     77  66  68 CALM      30.16S
WRIGHT-PAT AFB NOT AVBL
DAYTON GENERAL SUNNY     78  66  66 NE3       30.15R
WILMINGTON     SUNNY     76  68  76 CALM      30.15R
$$

OHZ036-037-039>041-045>050-054>059-063>069-073>076-082>088-231500-
  CENTRAL AND SOUTHEAST OHIO

CITY           SKY/WX    TMP DP  RH WIND       PRES   REMARKS
COLUMBUS       MOSUNNY   74  64  71 CALM      30.14R
OSU AIRPORT    SUNNY     75  65  70 CALM      30.14S
BOLTON FIELD   SUNNY     75  64  69 CALM      30.16R
RICKENBACK AFB NOT AVBL
NEWARK         SUNNY     73  62  68 CALM      30.15R
MARION         SUNNY     75  59  57 S3        30.16R
LANCASTER      SUNNY     73  65  75 CALM      30.15R
ZANESVILLE     SUNNY     72  62  71 CALM      30.15R
NEW PHILLY     NOT AVBL
$$



USA.gov is the U.S. government's official web portal to all federal, state and local government web resources and services.